SCP
0 0 0 0 0 0 0 0 0 0 0 0 0 0 0 0 0 0 0 -0 -0 -0 -0 0 0 -1 -1 -0 -0 -0 -0 -0 -0 -0 -0 -0 -0 -0 0 0 0 0 0 0 0 0 0 0 0
0 0 0 0 0 0 0 0 0 0 0 0 0 0 0 -0 0 0 0 0 -0 -0 -0 0 0 -0 -0 -0 -0 -0 -0 -0 -0 -0 -0 -0 -0 -0 -0 0 0 0 0 0 0 0 0 0 0
0 0 0 0 0 0 -0 0 0 0 0 0 0 0 0 0 0 0 -0 0 -0 -0 -0 0 1 -0 -0 -0 -0 -0 -0 -0 -0 -0 -0 -0 -0 0 0 0 0 0 0 0 0 0 0 0 0
0 0 0 0 0 0 0 0 0 0 0 0 0 0 0 0 0 0 0 -0 -0 -0 0 -0 0 0 -0 -0 -0 -0 -1 -0 -0 -0 -0 -0 0 0 0 0 0 0 0 0 0 0 0 0 0
0 0 0 0 0 0 0 0 0 0 0 0 0 0 0 0 0 0 0 -0 -0 0 0 -0 -0 0 0 -0 -0 -0 -1 -1 -0 -0 -0 -0 -0 0 0 0 0 0 0 0 0 0 0 0 0
0 0 0 0 0 0 0 -0 0 0 0 0 0 0 0 -0 0 0 0 0 0 0 0 -0 -0 -0 -0 -0 -0 -0 -0 -0 -0 -0 -0 -0 -0 0 0 0 0 0 0 0 0 0 0 0 0
0 0 0 0 -0 -0 0 -0 0 0 0 0 0 0 0 0 0 0 0 0 0 0 0 -0 -0 -0 -0 -0 -0 -0 -0 -0 -0 -0 -0 -0 -0 0 0 0 0 0 0 0 0 0 0 0 0
0 0 0 0 -0 -0 -0 0 0 0 0 0 0 0 0 0 0 0 0 0 0 0 0 0 -0 -0 -0 -0 -0 0 -0 -0 -0 -0 -0 -0 -0 0 0 0 0 0 0 0 0 0 0 0 0
0 0 0 0 0 -0 0 -0 -0 -0 0 -0 0 0 0 0 0 0 0 0 0 0 0 -0 0 -0 0 0 -0 -0 0 0 -0 -0 -0 0 0 0 0 0 0 0 0 0 0 0 0 0 0
0 0 0 0 0 -0 -0 -0 -0 -0 0 -0 -0 0 0 0 0 0 0 0 0 0 0 0 0 0 0 0 0 0 0 0 0 0 0 0 0 0 0 0 0 0 0 0 0 0 1 0 0
0 0 0 0 0 0 -0 -0 -0 -0 0 -0 -0 -0 0 0 0 0 0 0 0 0 0 0 0 0 0 0 0 0 0 0 0 0 0 0 0 0 0 0 0 0 0 0 0 0 0 0 0
0 0 0 0 0 0 -0 -0 -0 -0 -0 -0 -0 -0 -0 0 0 0 0 0 0 0 0 0 0 0 0 0 0 0 0 0 0 0 0 0 0 0 0 0 0 0 0 0 0 0 0 0 0
0 0 0 0 0 0 0 -0 -0 -0 -0 -0 -0 -0 -0 -0 0 0 0 0 0 0 0 0 0 0 0 0 0 0 0 0 0 0 0 0 0 0 0 0 0 0 0 0 0 0 0 0 0
0 0 0 0 0 0 0 0 0 -0 -0 -0 -0 -0 -0 -0 0 0 0 0 0 0 0 0 0 0 0 0 0 0 0 0 0 0 0 0 0 0 0 0 0 0 0 0 0 0 0 0 0
0 0 0 0 0 0 0 0 0 -0 -0 -0 -0 -0 -0 -0 0 0 0 0 0 0 0 0 0 0 0 0 0 0 0 0 0 0 0 0 0 0 0 0 0 0 0 0 0 0 0 0 0
0 0 0 0 0 0 0 0 0 0 0 0 -0 -0 -0 0 0 0 0 0 0 0 1 1 0 0 0 0 0 0 0 0 0 0 0 0 0 0 0 0 0 0 0 0 0 0 0 0 0
0 0 0 0 0 0 0 0 0 0 0 0 0 0 0 0 0 0 0 0 0 0 1 2 1 0 0 0 0 0 0 0 0 0 0 0 0 0 0 0 0 0 0 0 0 0 0 0 0
0 0 0 0 0 0 0 0 0 0 0 0 0 0 0 0 0 0 0 0 0 0 0 0 2 1 1 0 0 0 0 0 0 0 0 0 0 0 0 0 0 0 0 0 0 0 0 0 0
0 0 0 0 0 0 0 0 0 0 0 0 0 0 0 0 0 0 0 0 0 0 0 0 0 0 0 0 0 0 0 0 0 0 0 0 0 0 0 0 0 0 0 0 0 0 0 0 0
0 0 0 0 0 0 -0 0 0 0 0 0 0 0 0 0 0 0 0 0 0 0 0 0 0 0 0 0 1 1 0 0 0 1 1 0 0 0 0 0 0 0 0 0 0 0 0 0 0
0 0 -0 -0 -0 -0 -0 -0 -0 -0 0 0 0 0 -0 -0 -0 0 0 0 0 0 0 0 0 0 0 0 1 0 0 0 1 1 1 1 1 1 1 0 0 0 0 0 0 0 0 0 0
0 0 0 0 0 -0 0 -0 -0 -0 -0 0 0 0 0 0 0 -0 -0 0 0 0 0 0 0 0 0 0 0 1 1 1 1 1 1 1 1 1 1 0 0 0 0 0 0 0 0 0 0
0 0 0 0 0 0 0 0 -0 -0 -0 -0 -0 0 0 0 0 0 0 0 0 0 0 0 0 0 0 0 0 0 0 0 1 0 1 0 1 1 1 1 0 0 0 0 0 0 0 0 0
0 0 0 0 0 0 -0 -0 -0 -0 -0 -0 0 0 0 0 0 0 0 0 0 0 0 0 0 0 0 0 0 0 0 1 0 0 1 1 0 0 1 1 1 0 0 0 0 0 0 0 0
0 0 0 0 0 0 0 0 0 0 -0 -0 -0 -0 0 0 0 0 0 0 0 0 0 0 0 0 0 0 0 0 0 1 0 0 1 0 0 0 1 1 1 1 1 0 0 0 0 0 0
0 0 0 0 0 0 0 0 0 0 0 0 0 -0 0 0 0 0 0 0 0 0 0 0 0 0 0 0 0 0 0 1 0 0 0 0 0 0 1 1 1 1 1 1 0 0 0 0 0
0 0 0 0 0 0 0 0 0 0 0 0 0 0 0 0 0 0 0 0 0 0 0 0 0 0 0 0 0 0 0 0 0 0 0 0 0 1 1 1 1 1 1 1 0 0 0 0 0
0 0 0 0 0 0 0 0 0 0 0 0 0 0 0 0 0 0 0 -0 0 0 0 0 0 0 0 0 0 0 0 0 0 0 0 0 0 1 1 1 1 1 1 1 0 0 0 0 0
0 0 0 0 0 0 0 0 0 0 0 0 -0 0 -0 0 0 0 0 -0 -0 0 0 0 0 0 0 0 0 0 0 0 0 0 0 0 1 1 1 1 1 1 1 1 0 0 0 0 0
0 0 0 0 0 0 0 0 0 0 0 0 0 -0 -0 -0 0 0 0 -0 -0 0 0 0 0 0 0 0 0 0 0 0 0 0 0 0 1 1 1 1 1 1 1 0 0 0 0 0 0
Wind_Speed_500mb
15 3 8 8 7 9 6 12 4 9 14 2 31 17 17 26 12 11 12 42 66 71 74 68 64 59 57 57 57 56 55 53 51 49 47 43 40 39 36 33 31 29 27 25 22 20 19 17 14
10 2 6 7 9 2 10 8 10 6 14 39 31 18 11 25 58 60 34 69 74 77 79 75 72 66 65 63 63 61 57 55 52 50 46 42 38 35 33 31 28 25 23 21 20 18 16 15 13
4 5 5 7 7 11 9 9 9 13 31 16 11 37 13 11 17 23 49 81 82 81 83 80 78 72 69 64 62 60 57 54 51 47 43 39 35 32 29 27 24 21 19 18 17 15 13 11 10
7 5 4 8 15 9 10 5 13 14 16 9 25 17 23 25 12 32 36 91 87 85 85 82 79 75 72 69 64 58 55 52 48 43 39 35 32 29 25 23 21 18 16 14 13 13 11 9 9
13 3 1 4 9 6 7 16 23 12 13 34 38 17 26 35 20 35 52 88 89 88 87 84 80 75 72 70 65 58 55 51 47 42 37 32 30 27 25 23 21 18 15 12 11 11 10 8 6
9 7 2 9 10 5 5 15 13 4 11 33 33 39 13 63 38 26 58 84 90 88 87 85 81 77 72 69 65 60 57 52 47 42 38 34 31 28 26 23 21 18 15 14 12 12 10 8 5
10 7 10 10 4 2 1 5 6 5 13 13 41 14 30 77 41 22 72 86 90 85 87 87 82 78 73 69 66 60 57 53 49 44 40 35 32 30 27 24 22 19 18 17 17 16 15 12 9
8 7 6 9 12 7 2 18 18 12 10 31 30 12 38 70 40 20 73 79 94 90 89 88 86 82 76 72 67 61 58 53 47 45 41 37 33 32 30 28 26 23 23 21 21 20 21 19 16
10 3 9 7 8 6 15 9 14 16 24 29 12 29 50 57 51 17 57 74 91 92 90 89 86 84 78 74 70 65 60 55 50 48 45 40 38 37 36 34 31 29 28 26 27 27 28 26 25
7 7 13 0 6 12 27 10 23 18 34 2 26 48 45 50 51 26 49 70 90 95 95 91 88 85 81 76 71 67 65 60 57 54 49 46 42 39 38 38 37 35 32 32 34 33 34 34 32
5 8 2 5 5 21 22 25 11 18 33 8 36 51 58 51 42 33 36 57 82 90 94 91 88 84 81 78 74 70 67 65 61 57 52 49 45 44 44 43 43 39 37 37 39 40 39 38 37
2 8 2 2 11 14 14 42 20 34 54 30 33 48 42 39 37 37 31 46 68 86 89 93 91 86 83 77 75 71 68 67 63 58 56 52 50 50 48 46 45 41 42 42 42 43 42 42 41
7 2 7 12 15 19 26 26 47 47 50 35 17 31 35 37 35 35 32 39 44 60 75 87 89 88 85 81 77 72 71 67 60 57 55 54 53 50 50 51 50 46 44 44 43 44 44 46 44
3 6 14 14 22 22 16 30 39 43 29 45 43 42 38 41 41 37 34 22 41 55 66 72 82 89 86 80 78 74 73 68 62 55 54 57 56 53 53 53 52 51 47 42 40 40 41 45 44
6 8 11 13 10 12 34 26 25 42 40 45 25 17 20 25 34 36 37 39 35 39 71 62 61 88 90 89 88 88 76 66 60 51 48 57 56 58 57 54 53 45 44 39 36 37 39 43 42
5 7 7 7 6 7 14 8 9 19 32 29 33 22 20 23 17 26 32 36 39 27 24 50 58 57 87 98 99 80 74 71 59 47 50 45 42 51 53 51 51 42 42 38 36 35 37 40 39
10 2 1 14 5 5 2 9 14 44 32 37 33 27 28 28 26 19 22 34 35 38 41 40 44 73 95 91 90 83 76 73 55 45 41 44 33 78 64 53 54 46 43 43 38 37 37 40 37
6 4 6 8 10 12 11 13 10 32 32 34 32 31 29 27 23 26 21 18 34 47 56 50 45 44 47 67 81 78 72 55 53 47 58 69 54 79 73 61 59 49 47 45 42 43 39 42 35
3 5 6 8 7 14 19 24 21 19 21 29 24 31 34 27 27 20 20 19 19 36 45 57 57 48 49 52 73 91 92 85 97 75 99 106 87 96 85 64 59 54 52 47 42 44 45 45 37
7 5 5 9 10 10 17 39 32 16 13 11 25 37 39 37 27 33 27 23 25 22 33 51 63 66 58 54 63 84 89 86 92 83 89 102 92 89 86 69 59 56 54 53 47 48 48 48 43
1 6 4 10 7 9 14 19 6 3 13 33 37 39 39 28 37 37 40 37 34 32 29 32 55 67 74 74 70 81 87 85 79 88 96 101 100 96 79 65 59 60 59 57 54 49 47 49 43
2 8 5 9 12 6 9 14 8 5 9 11 38 42 38 37 40 45 42 38 37 39 39 36 37 52 78 82 89 90 97 107 114 107 105 100 99 84 74 61 61 64 62 63 57 48 42 48 48
11 3 4 5 5 4 9 5 12 16 12 9 15 32 35 28 22 26 32 37 38 40 41 40 41 43 51 82 96 104 102 92 79 81 94 97 101 83 62 59 64 65 65 61 57 47 42 43 44
6 5 9 8 5 3 9 8 7 5 4 15 26 34 30 30 33 33 31 36 42 41 44 45 46 47 43 54 78 86 93 88 88 90 97 101 96 68 53 58 65 63 65 58 51 43 42 34 40
9 11 8 9 6 9 8 7 23 19 32 14 18 31 32 34 41 44 49 50 48 50 46 48 49 54 46 47 64 77 89 78 79 90 93 95 81 58 57 63 61 57 50 45 44 42 34 35 40
4 12 9 9 6 9 1 14 14 13 18 25 30 35 39 43 50 58 68 67 66 65 58 49 51 54 50 49 51 72 80 86 87 80 88 81 74 61 58 60 52 46 37 39 39 35 32 36 36
4 6 5 4 4 4 10 12 22 29 23 19 32 37 43 49 68 72 69 69 67 69 62 56 50 56 53 53 51 58 60 64 75 69 66 62 60 62 64 54 45 37 35 37 38 30 31 32 31
11 12 3 5 4 9 10 12 23 17 21 17 18 26 56 75 79 74 64 61 66 75 64 57 46 56 58 55 53 54 62 56 52 56 59 61 65 68 63 52 42 38 38 39 30 25 30 30 30
2 3 5 5 8 7 11 18 10 18 18 13 17 41 55 72 82 68 66 78 79 64 56 54 48 50 58 60 56 55 60 64 65 65 65 67 71 66 56 50 44 41 43 38 31 29 35 34 34
12 12 11 7 8 9 7 30 6 15 9 12 28 41 56 65 63 52 60 74 76 69 49 49 50 49 51 60 57 59 58 63 69 73 73 69 62 55 52 46 44 44 44 39 32 35 35 34 36
Wind_Direction_500mb
312 297 149 150 70 64 265 259 261 300 336 216 308 264 240 243 172 214 250 193 179 175 171 167 159 159 159 156 156 153 152 151 150 149 145 143 140 135 132 129 124 123 120 119 116 113 109 106 107
314 159 150 121 100 90 266 250 227 221 288 308 291 267 220 254 250 240 258 180 180 177 171 168 161 161 160 158 157 156 155 155 154 152 150 148 144 143 141 136 132 131 130 128 121 118 117 119 117
290 236 197 106 128 192 214 219 189 268 314 281 294 306 269 239 250 212 222 183 178 178 174 171 164 165 162 163 161 159 160 160 160 159 157 156 153 154 150 146 145 144 141 136 137 132 131 128 121
174 219 38 105 233 241 207 214 254 300 331 338 303 297 312 267 291 216 221 177 177 179 177 174 169 170 166 167 166 165 166 167 167 167 168 167 166 163 164 164 161 162 162 161 157 152 154 152 145
183 194 63 169 247 249 235 255 280 297 298 304 332 296 294 350 269 221 192 176 180 180 179 176 173 176 173 170 171 172 175 174 175 176 179 179 181 179 181 182 180 181 181 186 188 183 178 170 156
162 156 119 229 225 162 251 251 265 257 321 317 344 326 352 352 345 217 187 177 184 181 181 180 177 180 180 176 177 179 182 182 184 186 189 192 195 196 197 199 199 197 200 212 219 221 215 201 200
172 133 212 258 254 335 236 356 292 326 311 335 343 340 336 352 348 205 182 182 183 186 185 183 182 183 187 184 184 185 188 191 193 195 197 201 206 210 213 216 218 218 223 227 234 240 246 241 232
216 130 217 218 237 252 250 344 334 24 322 322 354 353 339 346 341 225 188 186 186 189 191 186 186 187 191 192 190 192 195 199 201 205 206 209 216 223 227 231 231 236 239 241 247 253 258 257 257
179 200 214 223 139 228 289 355 277 293 269 318 333 329 344 347 345 263 199 196 193 194 195 192 191 191 194 198 196 196 201 204 210 214 215 218 224 229 235 239 241 244 248 252 255 257 260 262 265
169 194 214 38 58 300 287 217 308 323 304 305 329 323 341 341 333 302 215 205 198 200 199 197 196 196 198 201 203 202 204 208 213 220 222 226 231 237 242 245 247 249 252 256 260 260 262 263 266
185 193 272 37 359 298 297 296 295 301 287 54 336 323 320 329 329 306 251 222 204 205 205 202 202 202 203 205 206 208 211 212 217 222 228 233 238 241 244 247 248 255 259 263 264 267 266 270 271
173 245 248 233 292 297 289 308 284 263 268 303 307 310 316 323 319 292 281 241 220 211 211 206 205 206 209 210 212 212 215 220 220 225 231 238 242 247 251 256 258 261 268 269 270 271 275 273 273
153 44 357 300 276 268 283 277 283 262 287 308 319 319 319 315 309 302 279 250 236 232 225 221 212 209 211 214 217 219 220 225 229 232 238 246 247 253 261 266 268 271 273 274 273 275 277 277 275
242 245 272 248 244 241 237 262 259 271 305 301 305 302 297 293 306 298 297 266 247 240 231 231 232 219 216 217 224 227 228 227 232 240 248 254 257 261 266 270 272 275 278 276 276 274 275 275 273
273 298 306 249 263 247 227 259 255 286 304 297 340 346 310 297 291 296 297 285 280 260 242 234 247 234 223 221 224 225 230 233 238 249 258 265 265 273 273 276 273 273 275 275 272 267 269 273 273
64 45 25 277 311 286 172 283 296 360 336 323 334 345 359 356 300 269 277 293 276 273 269 251 249 234 239 231 230 230 231 235 234 252 256 266 277 280 275 276 274 270 268 268 266 264 266 269 271
3 115 269 312 333 307 96 290 331 337 334 316 324 328 331 336 333 327 272 260 272 259 269 263 246 226 236 236 242 238 234 239 236 257 284 270 302 287 275 274 277 268 263 264 269 266 263 265 267
285 343 316 262 312 6 305 236 285 303 308 300 305 314 319 326 331 336 320 286 258 255 262 256 264 257 250 238 235 233 233 230 242 248 240 243 255 245 270 267 273 273 267 264 269 270 264 265 263
200 192 232 275 314 0 302 291 292 273 279 284 302 319 312 305 322 321 319 307 298 251 255 258 254 258 258 247 227 226 226 217 234 248 250 248 251 252 264 270 271 273 272 273 270 267 262 260 255
168 164 248 290 278 321 276 284 288 259 229 228 304 303 296 296 307 315 304 291 284 282 253 245 256 251 250 251 244 234 220 228 247 240 240 238 255 253 259 263 269 276 276 274 273 269 263 258 245
306 160 249 235 288 259 324 290 128 248 261 280 289 291 281 285 306 311 309 294 279 279 275 257 246 246 250 242 239 240 234 236 236 234 244 251 253 254 253 262 272 275 275 276 277 273 266 261 248
314 205 236 306 17 312 54 288 307 272 290 286 286 289 272 294 297 297 305 298 284 278 276 268 261 247 239 241 241 243 248 249 250 255 264 261 256 257 257 264 270 271 275 276 276 273 270 259 245
223 166 288 269 262 40 291 289 265 351 282 292 288 310 294 285 292 306 306 305 294 290 285 284 272 263 252 239 239 244 249 252 249 253 258 261 256 261 259 263 264 267 274 274 271 265 263 257 242
56 20 19 45 84 26 248 186 255 254 195 308 302 300 292 308 309 314 312 310 304 291 290 290 281 269 269 254 242 241 244 248 246 250 253 253 257 258 249 255 259 265 271 268 262 254 255 252 246
78 54 344 340 357 229 190 294 257 271 288 268 269 290 308 314 323 320 323 325 315 308 298 291 289 272 265 263 240 239 245 240 253 252 253 252 249 236 246 253 258 268 272 254 240 244 246 245 238
202 150 160 243 234 243 19 248 254 240 247 248 258 274 298 302 319 323 323 322 319 313 301 290 285 281 267 263 250 234 239 246 249 256 251 247 243 241 248 251 254 264 247 232 232 228 242 238 236
163 188 196 143 266 340 225 286 291 279 257 258 263 278 292 311 316 318 325 330 326 317 300 286 284 283 277 264 263 245 232 246 250 255 251 245 235 235 245 245 253 244 226 223 221 233 240 226 224
164 166 67 9 292 258 265 259 239 299 282 261 280 305 315 316 318 310 320 329 326 317 299 279 277 281 279 271 262 256 233 231 247 251 244 234 229 236 243 240 242 227 220 216 221 223 213 216 220
268 216 92 149 172 237 301 264 197 245 265 288 294 312 315 316 313 308 313 324 327 316 304 274 279 275 272 269 263 261 238 234 238 243 246 235 235 240 238 233 228 220 217 215 221 218 216 220 211
180 207 163 151 237 226 214 264 210 253 326 303 298 321 331 334 326 318 320 326 326 319 306 292 280 273 266 264 258 258 241 232 236 238 243 239 237 240 226 226 221 217 216 217 209 210 209 211 212
Wind_Speed_850mb
15 3 8 8 7 9 6 12 4 9 14 2 31 17 17 26 12 11 12 42 66 71 74 68 64 59 57 57 57 56 55 53 51 49 47 43 40 39 36 33 31 29 27 25 22 20 19 17 14
10 2 6 7 9 2 10 8 10 6 14 39 31 18 11 25 58 60 34 69 74 77 79 75 72 66 65 63 63 61 57 55 52 50 46 42 38 35 33 31 28 25 23 21 20 18 16 15 13
4 5 5 7 7 11 9 9 9 13 31 16 11 37 13 11 17 23 49 81 82 81 83 80 78 72 69 64 62 60 57 54 51 47 43 39 35 32 29 27 24 21 19 18 17 15 13 11 10
7 5 4 8 15 9 10 5 13 14 16 9 25 17 23 25 12 32 36 91 87 85 85 82 79 75 72 69 64 58 55 52 48 43 39 35 32 29 25 23 21 18 16 14 13 13 11 9 9
13 3 1 4 9 6 7 16 23 12 13 34 38 17 26 35 20 35 52 88 89 88 87 84 80 75 72 70 65 58 55 51 47 42 37 32 30 27 25 23 21 18 15 12 11 11 10 8 6
9 7 2 9 10 5 5 15 13 4 11 33 33 39 13 63 38 26 58 84 90 88 87 85 81 77 72 69 65 60 57 52 47 42 38 34 31 28 26 23 21 18 15 14 12 12 10 8 5
10 7 10 10 4 2 1 5 6 5 13 13 41 14 30 77 41 22 72 86 90 85 87 87 82 78 73 69 66 60 57 53 49 44 40 35 32 30 27 24 22 19 18 17 17 16 15 12 9
8 7 6 9 12 7 2 18 18 12 10 31 30 12 38 70 40 20 73 79 94 90 89 88 86 82 76 72 67 61 58 53 47 45 41 37 33 32 30 28 26 23 23 21 21 20 21 19 16
10 3 9 7 8 6 15 9 14 16 24 29 12 29 50 57 51 17 57 74 91 92 90 89 86 84 78 74 70 65 60 55 50 48 45 40 38 37 36 34 31 29 28 26 27 27 28 26 25
7 7 13 0 6 12 27 10 23 18 34 2 26 48 45 50 51 26 49 70 90 95 95 91 88 85 81 76 71 67 65 60 57 54 49 46 42 39 38 38 37 35 32 32 34 33 34 34 32
5 8 2 5 5 21 22 25 11 18 33 8 36 51 58 51 42 33 36 57 82 90 94 91 88 84 81 78 74 70 67 65 61 57 52 49 45 44 44 43 43 39 37 37 39 40 39 38 37
2 8 2 2 11 14 14 42 20 34 54 30 33 48 42 39 37 37 31 46 68 86 89 93 91 86 83 77 75 71 68 67 63 58 56 52 50 50 48 46 45 41 42 42 42 43 42 42 41
7 2 7 12 15 19 26 26 47 47 50 35 17 31 35 37 35 35 32 39 44 60 75 87 89 88 85 81 77 72 71 67 60 57 55 54 53 50 50 51 50 46 44 44 43 44 44 46 44
3 6 14 14 22 22 16 30 39 43 29 45 43 42 38 41 41 37 34 22 41 55 66 72 82 89 86 80 78 74 73 68 62 55 54 57 56 53 53 53 52 51 47 42 40 40 41 45 44
6 8 11 13 10 12 34 26 25 42 40 45 25 17 20 25 34 36 37 39 35 39 71 62 61 88 90 89 88 88 76 66 60 51 48 57 56 58 57 54 53 45 44 39 36 37 39 43 42
5 7 7 7 6 7 14 8 9 19 32 29 33 22 20 23 17 26 32 36 39 27 24 50 58 57 87 98 99 80 74 71 59 47 50 45 42 51 53 51 51 42 42 38 36 35 37 40 39
10 2 1 14 5 5 2 9 14 44 32 37 33 27 28 28 26 19 22 34 35 38 41 40 44 73 95 91 90 83 76 73 55 45 41 44 33 78 64 53 54 46 43 43 38 37 37 40 37
6 4 6 8 10 12 11 13 10 32 32 34 32 31 29 27 23 26 21 18 34 47 56 50 45 44 47 67 81 78 72 55 53 47 58 69 54 79 73 61 59 49 47 45 42 43 39 42 35
3 5 6 8 7 14 19 24 21 19 21 29 24 31 34 27 27 20 20 19 19 36 45 57 57 48 49 52 73 91 92 85 97 75 99 106 87 96 85 64 59 54 52 47 42 44 45 45 37
7 5 5 9 10 10 17 39 32 16 13 11 25 37 39 37 27 33 27 23 25 22 33 51 63 66 58 54 63 84 89 86 92 83 89 102 92 89 86 69 59 56 54 53 47 48 48 48 43
1 6 4 10 7 9 14 19 6 3 13 33 37 39 39 28 37 37 40 37 34 32 29 32 55 67 74 74 70 81 87 85 79 88 96 101 100 96 79 65 59 60 59 57 54 49 47 49 43
2 8 5 9 12 6 9 14 8 5 9 11 38 42 38 37 40 45 42 38 37 39 39 36 37 52 78 82 89 90 97 107 114 107 105 100 99 84 74 61 61 64 62 63 57 48 42 48 48
11 3 4 5 5 4 9 5 12 16 12 9 15 32 35 28 22 26 32 37 38 40 41 40 41 43 51 82 96 104 102 92 79 81 94 97 101 83 62 59 64 65 65 61 57 47 42 43 44
6 5 9 8 5 3 9 8 7 5 4 15 26 34 30 30 33 33 31 36 42 41 44 45 46 47 43 54 78 86 93 88 88 90 97 101 96 68 53 58 65 63 65 58 51 43 42 34 40
9 11 8 9 6 9 8 7 23 19 32 14 18 31 32 34 41 44 49 50 48 50 46 48 49 54 46 47 64 77 89 78 79 90 93 95 81 58 57 63 61 57 50 45 44 42 34 35 40
4 12 9 9 6 9 1 14 14 13 18 25 30 35 39 43 50 58 68 67 66 65 58 49 51 54 50 49 51 72 80 86 87 80 88 81 74 61 58 60 52 46 37 39 39 35 32 36 36
4 6 5 4 4 4 10 12 22 29 23 19 32 37 43 49 68 72 69 69 67 69 62 56 50 56 53 53 51 58 60 64 75 69 66 62 60 62 64 54 45 37 35 37 38 30 31 32 31
11 12 3 5 4 9 10 12 23 17 21 17 18 26 56 75 79 74 64 61 66 75 64 57 46 56 58 55 53 54 62 56 52 56 59 61 65 68 63 52 42 38 38 39 30 25 30 30 30
2 3 5 5 8 7 11 18 10 18 18 13 17 41 55 72 82 68 66 78 79 64 56 54 48 50 58 60 56 55 60 64 65 65 65 67 71 66 56 50 44 41 43 38 31 29 35 34 34
12 12 11 7 8 9 7 30 6 15 9 12 28 41 56 65 63 52 60 74 76 69 49 49 50 49 51 60 57 59 58 63 69 73 73 69 62 55 52 46 44 44 44 39 32 35 35 34 36
Wind_Direction_850mb
312 297 149 150 70 64 265 259 261 300 336 216 308 264 240 243 172 214 250 193 179 175 171 167 159 159 159 156 156 153 152 151 150 149 145 143 140 135 132 129 124 123 120 119 116 113 109 106 107
314 159 150 121 100 90 266 250 227 221 288 308 291 267 220 254 250 240 258 180 180 177 171 168 161 161 160 158 157 156 155 155 154 152 150 148 144 143 141 136 132 131 130 128 121 118 117 119 117
290 236 197 106 128 192 214 219 189 268 314 281 294 306 269 239 250 212 222 183 178 178 174 171 164 165 162 163 161 159 160 160 160 159 157 156 153 154 150 146 145 144 141 136 137 132 131 128 121
174 219 38 105 233 241 207 214 254 300 331 338 303 297 312 267 291 216 221 177 177 179 177 174 169 170 166 167 166 165 166 167 167 167 168 167 166 163 164 164 161 162 162 161 157 152 154 152 145
183 194 63 169 247 249 235 255 280 297 298 304 332 296 294 350 269 221 192 176 180 180 179 176 173 176 173 170 171 172 175 174 175 176 179 179 181 179 181 182 180 181 181 186 188 183 178 170 156
162 156 119 229 225 162 251 251 265 257 321 317 344 326 352 352 345 217 187 177 184 181 181 180 177 180 180 176 177 179 182 182 184 186 189 192 195 196 197 199 199 197 200 212 219 221 215 201 200
172 133 212 258 254 335 236 356 292 326 311 335 343 340 336 352 348 205 182 182 183 186 185 183 182 183 187 184 184 185 188 191 193 195 197 201 206 210 213 216 218 218 223 227 234 240 246 241 232
216 130 217 218 237 252 250 344 334 24 322 322 354 353 339 346 341 225 188 186 186 189 191 186 186 187 191 192 190 192 195 199 201 205 206 209 216 223 227 231 231 236 239 241 247 253 258 257 257
179 200 214 223 139 228 289 355 277 293 269 318 333 329 344 347 345 263 199 196 193 194 195 192 191 191 194 198 196 196 201 204 210 214 215 218 224 229 235 239 241 244 248 252 255 257 260 262 265
169 194 214 38 58 300 287 217 308 323 304 305 329 323 341 341 333 302 215 205 198 200 199 197 196 196 198 201 203 202 204 208 213 220 222 226 231 237 242 245 247 249 252 256 260 260 262 263 266
185 193 272 37 359 298 297 296 295 301 287 54 336 323 320 329 329 306 251 222 204 205 205 202 202 202 203 205 206 208 211 212 217 222 228 233 238 241 244 247 248 255 259 263 264 267 266 270 271
173 245 248 233 292 297 289 308 284 263 268 303 307 310 316 323 319 292 281 241 220 211 211 206 205 206 209 210 212 212 215 220 220 225 231 238 242 247 251 256 258 261 268 269 270 271 275 273 273
153 44 357 300 276 268 283 277 283 262 287 308 319 319 319 315 309 302 279 250 236 232 225 221 212 209 211 214 217 219 220 225 229 232 238 246 247 253 261 266 268 271 273 274 273 275 277 277 275
242 245 272 248 244 241 237 262 259 271 305 301 305 302 297 293 306 298 297 266 247 240 231 231 232 219 216 217 224 227 228 227 232 240 248 254 257 261 266 270 272 275 278 276 276 274 275 275 273
273 298 306 249 263 247 227 259 255 286 304 297 340 346 310 297 291 296 297 285 280 260 242 234 247 234 223 221 224 225 230 233 238 249 258 265 265 273 273 276 273 273 275 275 272 267 269 273 273
64 45 25 277 311 286 172 283 296 360 336 323 334 345 359 356 300 269 277 293 276 273 269 251 249 234 239 231 230 230 231 235 234 252 256 266 277 280 275 276 274 270 268 268 266 264 266 269 271
3 115 269 312 333 307 96 290 331 337 334 316 324 328 331 336 333 327 272 260 272 259 269 263 246 226 236 236 242 238 234 239 236 257 284 270 302 287 275 274 277 268 263 264 269 266 263 265 267
285 343 316 262 312 6 305 236 285 303 308 300 305 314 319 326 331 336 320 286 258 255 262 256 264 257 250 238 235 233 233 230 242 248 240 243 255 245 270 267 273 273 267 264 269 270 264 265 263
200 192 232 275 314 0 302 291 292 273 279 284 302 319 312 305 322 321 319 307 298 251 255 258 254 258 258 247 227 226 226 217 234 248 250 248 251 252 264 270 271 273 272 273 270 267 262 260 255
168 164 248 290 278 321 276 284 288 259 229 228 304 303 296 296 307 315 304 291 284 282 253 245 256 251 250 251 244 234 220 228 247 240 240 238 255 253 259 263 269 276 276 274 273 269 263 258 245
306 160 249 235 288 259 324 290 128 248 261 280 289 291 281 285 306 311 309 294 279 279 275 257 246 246 250 242 239 240 234 236 236 234 244 251 253 254 253 262 272 275 275 276 277 273 266 261 248
314 205 236 306 17 312 54 288 307 272 290 286 286 289 272 294 297 297 305 298 284 278 276 268 261 247 239 241 241 243 248 249 250 255 264 261 256 257 257 264 270 271 275 276 276 273 270 259 245
223 166 288 269 262 40 291 289 265 351 282 292 288 310 294 285 292 306 306 305 294 290 285 284 272 263 252 239 239 244 249 252 249 253 258 261 256 261 259 263 264 267 274 274 271 265 263 257 242
56 20 19 45 84 26 248 186 255 254 195 308 302 300 292 308 309 314 312 310 304 291 290 290 281 269 269 254 242 241 244 248 246 250 253 253 257 258 249 255 259 265 271 268 262 254 255 252 246
78 54 344 340 357 229 190 294 257 271 288 268 269 290 308 314 323 320 323 325 315 308 298 291 289 272 265 263 240 239 245 240 253 252 253 252 249 236 246 253 258 268 272 254 240 244 246 245 238
202 150 160 243 234 243 19 248 254 240 247 248 258 274 298 302 319 323 323 322 319 313 301 290 285 281 267 263 250 234 239 246 249 256 251 247 243 241 248 251 254 264 247 232 232 228 242 238 236
163 188 196 143 266 340 225 286 291 279 257 258 263 278 292 311 316 318 325 330 326 317 300 286 284 283 277 264 263 245 232 246 250 255 251 245 235 235 245 245 253 244 226 223 221 233 240 226 224
164 166 67 9 292 258 265 259 239 299 282 261 280 305 315 316 318 310 320 329 326 317 299 279 277 281 279 271 262 256 233 231 247 251 244 234 229 236 243 240 242 227 220 216 221 223 213 216 220
268 216 92 149 172 237 301 264 197 245 265 288 294 312 315 316 313 308 313 324 327 316 304 274 279 275 272 269 263 261 238 234 238 243 246 235 235 240 238 233 228 220 217 215 221 218 216 220 211
180 207 163 151 237 226 214 264 210 253 326 303 298 321 331 334 326 318 320 326 326 319 306 292 280 273 266 264 258 258 241 232 236 238 243 239 237 240 226 226 221 217 216 217 209 210 209 211 212